EHI
0 4 9 8 3 2 4 5 3 1 3 6 4 1 0 0 0 0 0 0 0 0 0 0 0 0 0 0 0 0 0 0 0 0 0 0 0 0 0 0 0 0 0
0 4 11 12 9 7 6 6 3 1 1 3 3 1 0 0 0 0 0 0 0 0 0 0 0 0 0 0 0 0 0 0 0 0 0 0 0 0 0 0 0 0 0
0 3 11 19 19 15 12 9 5 2 1 1 1 0 0 0 0 0 0 0 0 0 0 0 0 0 0 0 0 0 0 0 0 0 0 0 0 0 0 0 0 0 0
0 1 12 27 31 26 21 15 10 6 4 2 0 0 0 0 0 0 0 0 0 0 0 0 0 0 0 0 0 0 0 0 0 0 0 0 0 0 0 0 0 0 0
0 1 16 40 48 40 32 25 18 12 8 4 1 0 0 0 0 0 0 0 0 0 0 0 0 0 0 0 0 0 0 0 0 0 0 0 0 0 0 0 0 0 0
0 1 20 51 62 54 45 36 26 18 12 6 2 0 0 0 0 0 0 0 0 0 0 0 0 0 0 0 0 0 0 0 0 0 0 0 0 0 0 0 0 0 0
0 0 21 54 70 63 57 47 36 26 17 8 3 1 0 0 0 0 0 0 0 0 0 0 0 0 0 0 0 0 0 0 0 0 0 0 0 0 0 0 0 0 1
0 1 18 48 65 67 63 55 45 34 22 12 5 1 0 0 0 0 0 0 0 0 0 0 0 0 0 0 0 0 0 0 0 0 0 0 0 0 0 0 0 1 2
2 4 15 30 45 55 59 57 52 41 28 17 9 3 0 0 0 0 0 0 0 0 0 0 0 0 0 0 0 0 0 0 0 0 0 0 0 0 0 0 0 1 2
4 7 13 20 27 35 44 51 53 47 35 23 14 7 3 1 0 0 0 0 0 0 0 0 0 0 0 0 0 0 0 0 0 0 0 0 0 0 0 0 0 0 1
4 8 14 19 22 26 33 41 48 47 39 29 20 12 7 3 1 0 0 0 0 0 0 0 0 0 0 0 0 0 0 0 0 0 0 0 0 0 0 0 0 0 1
3 8 14 19 23 27 30 32 39 44 41 36 27 19 13 7 3 1 1 0 0 0 0 0 0 0 0 0 0 0 0 0 0 0 0 0 0 0 0 0 0 1 2
2 5 12 20 24 26 24 23 28 35 38 36 30 24 18 13 8 5 3 1 0 0 0 0 0 0 1 1 1 0 0 0 0 0 0 0 0 0 1 0 0 1 2
1 3 9 18 22 22 19 16 19 24 27 27 24 22 22 19 15 10 6 3 1 0 0 0 0 0 1 2 2 1 0 0 0 0 0 0 0 0 0 0 0 1 2
1 2 6 13 19 21 18 13 13 16 17 16 15 17 20 20 15 10 7 4 2 1 1 1 2 1 1 2 3 2 1 1 0 0 0 0 0 0 1 1 1 2 3
3 2 3 8 15 20 18 12 10 10 10 9 9 11 15 16 12 8 6 5 5 5 5 6 6 5 4 3 2 1 0 1 1 0 0 0 0 1 2 3 4 4 5
6 4 3 6 12 17 17 13 9 8 7 6 5 6 8 10 10 8 8 9 11 14 15 14 11 9 7 5 3 1 0 0 1 0 0 0 0 1 3 5 7 6 6
9 9 11 13 14 15 16 15 14 14 12 11 10 9 9 10 13 16 16 19 24 28 28 25 18 14 11 9 6 3 1 1 1 0 0 0 0 0 2 6 7 6 5
12 14 20 23 21 19 19 19 20 23 26 26 24 20 18 18 22 26 27 30 38 42 40 34 28 23 17 12 8 4 2 1 0 0 0 0 0 0 1 3 4 3 2
16 17 21 25 25 22 21 21 23 29 35 37 34 28 24 25 27 29 28 31 40 45 42 36 31 25 19 13 8 5 4 2 1 0 0 0 0 0 0 1 1 1 0
13 12 15 18 18 17 17 18 20 24 28 29 27 23 19 19 20 19 18 22 30 35 34 30 25 21 17 13 9 7 5 3 2 1 0 0 1 1 1 1 1 0 0
6 5 5 7 8 8 8 9 11 12 12 13 13 12 10 8 7 6 8 12 17 21 21 20 18 17 15 14 12 9 6 3 2 1 0 0 1 2 2 2 1 0 0
1 1 1 1 2 2 2 2 2 3 3 3 4 4 3 1 1 1 2 4 8 11 11 12 14 13 11 12 14 12 7 4 2 0 0 0 1 2 2 1 0 0 0
0 0 0 0 0 0 1 1 0 0 1 1 1 1 1 0 0 0 0 1 3 4 4 7 9 8 6 7 10 11 9 6 3 1 0 0 0 1 1 0 0 0 0
0 0 0 0 0 1 2 1 0 0 0 0 0 0 0 0 0 0 0 0 0 1 1 2 4 4 3 2 4 9 10 7 4 1 0 0 0 0 0 0 0 0 0
0 0 1 1 1 1 2 1 0 0 0 0 0 0 0 0 0 0 0 0 0 0 0 1 1 2 2 1 2 7 10 8 4 1 0 0 0 0 0 0 0 0 0
Wind_Speed
7 10 19 18 17 17 16 16 15 15 15 15 15 15 14 13 13 12 10 10 9 8 8 7 7 8 8 7 8 9 9 9 9 9 10 10 9 9 10 10 10 8 11
12 13 19 19 18 17 16 16 15 15 15 14 14 14 13 12 12 11 10 9 9 8 8 7 7 7 7 7 7 8 8 8 7 8 8 7 7 7 8 9 9 7 10
14 12 16 19 18 17 16 16 15 15 14 14 13 13 12 11 11 10 9 9 8 8 7 7 7 6 6 6 7 7 7 6 6 6 6 3 3 5 7 9 10 10 10
14 11 13 19 18 18 17 16 15 15 14 13 13 12 11 10 10 9 9 8 7 7 7 7 7 7 6 6 6 6 5 5 5 5 3 2 2 4 7 8 10 11 11
11 9 13 20 19 18 17 16 15 15 14 13 12 11 10 10 9 9 8 8 7 7 7 7 7 7 6 6 6 5 5 4 4 3 2 2 2 4 6 8 10 11 11
10 9 12 20 19 18 17 16 15 14 14 13 12 11 10 10 9 9 8 8 8 7 7 7 7 7 7 7 6 6 6 6 5 2 2 3 4 7 9 10 11 12 12
11 8 10 19 18 18 17 16 15 15 14 13 12 11 11 10 10 9 9 9 9 9 9 9 8 8 8 8 8 8 7 7 5 4 4 4 5 8 11 12 13 13 13
11 8 8 18 18 17 16 16 15 14 14 13 12 12 11 11 11 10 10 10 10 10 10 10 10 10 10 9 9 9 9 9 6 5 5 5 7 10 11 13 14 14 14
8 7 6 8 12 16 16 15 14 14 13 13 12 12 12 12 12 12 12 12 12 12 12 12 12 12 12 11 11 11 11 11 8 5 6 5 8 11 12 13 14 15 15
6 6 5 5 6 6 8 14 14 14 13 13 13 13 13 13 13 13 12 12 13 13 13 14 14 13 13 12 12 12 13 11 8 7 6 7 12 13 14 14 14 16 16
8 6 5 5 5 5 5 9 12 13 13 13 11 14 12 7 6 7 11 13 15 15 15 15 15 15 14 13 14 14 12 6 7 6 6 11 14 15 15 15 14 15 16
12 10 8 7 6 5 6 5 4 5 5 6 5 6 5 4 5 8 9 16 17 17 17 17 16 15 12 6 9 12 6 8 7 7 7 14 15 16 16 15 14 15 16
10 10 10 9 7 7 5 4 3 3 3 4 6 6 4 4 4 6 4 7 9 12 9 9 10 7 7 6 6 6 8 8 6 6 8 14 15 16 16 15 14 14 15
8 10 9 9 8 7 5 3 3 3 3 4 6 7 5 5 6 6 6 6 5 5 6 6 5 8 9 9 10 10 10 7 7 6 8 15 16 17 17 15 14 14 15
8 9 8 8 8 7 6 4 5 5 5 5 5 6 8 7 7 7 6 6 7 6 7 7 8 9 9 10 9 10 10 10 10 8 6 14 15 15 16 15 14 14 14
8 8 7 9 9 7 6 5 4 4 5 4 5 7 8 7 7 7 7 7 8 8 8 8 9 8 8 7 9 9 10 9 9 9 8 9 14 15 15 15 14 13 13
7 7 8 8 7 7 7 6 5 4 4 5 6 7 8 8 9 9 7 8 8 7 7 7 7 6 6 7 8 9 8 9 9 9 8 7 7 11 14 14 13 13 14
5 6 7 7 8 7 6 5 4 4 5 6 6 6 9 10 11 9 8 9 8 6 6 6 6 6 6 6 6 7 7 7 9 9 8 7 6 7 9 12 12 12 13
5 5 5 5 5 6 5 5 5 4 5 5 5 6 7 9 10 9 8 8 7 7 7 7 6 5 6 6 7 7 7 6 7 8 9 9 8 7 7 9 12 12 13
5 5 4 4 4 4 3 3 3 4 4 4 5 6 7 6 7 7 7 9 8 7 7 7 7 7 5 5 6 7 6 7 7 8 9 8 8 10 9 9 7 8 13
5 5 4 4 3 2 1 1 2 3 3 3 3 4 5 5 5 5 6 7 7 7 8 9 7 8 7 4 4 5 6 8 9 8 7 8 9 9 8 8 7 6 6
4 5 4 4 4 3 2 2 2 2 2 2 3 3 4 4 4 4 4 5 5 6 7 7 8 6 5 6 5 4 4 4 6 8 7 8 9 7 8 9 8 7 6
4 6 5 5 4 3 2 1 0 1 2 2 2 3 4 5 5 4 5 5 5 5 6 7 7 8 7 6 7 6 5 6 3 3 6 6 6 6 6 6 8 8 7
6 4 4 5 4 3 2 2 2 1 2 3 2 3 5 5 6 5 5 5 5 5 6 7 6 6 7 6 6 8 7 4 4 3 2 3 5 6 6 6 6 6 6
5 4 4 4 4 3 3 3 2 2 2 2 2 4 4 5 5 5 5 5 5 5 6 7 6 7 7 7 6 5 7 7 6 5 4 3 2 3 4 4 4 3 4
4 4 4 4 4 4 4 3 4 4 3 3 4 4 4 4 4 5 5 5 5 5 6 7 7 8 7 9 7 6 6 5 6 7 7 4 3 2 2 2 3 3 3
Wind_Direction
165 163 164 159 154 150 146 141 137 135 133 133 134 135 136 136 137 136 135 134 133 132 129 123 120 121 122 119 115 112 114 118 122 125 124 122 123 126 125 123 121 121 123
152 160 164 161 157 154 151 147 144 142 141 140 140 140 140 140 140 139 139 140 140 140 137 136 134 133 132 129 124 122 123 127 132 134 130 128 130 135 137 135 134 137 134
147 159 163 162 160 158 156 154 152 151 149 148 147 146 146 146 146 146 147 149 150 149 148 148 147 146 144 140 136 135 135 138 142 143 133 117 137 152 156 153 151 150 145
149 157 162 165 163 162 161 160 160 159 158 157 156 155 154 154 155 157 159 161 163 163 163 164 165 164 161 158 155 152 152 155 159 159 140 170 197 179 177 171 167 164 159
151 157 168 167 167 166 166 167 167 167 167 166 166 166 166 168 171 173 175 178 181 182 182 183 184 182 182 181 179 179 180 183 193 183 173 213 234 225 206 194 185 180 174
154 159 173 170 171 171 171 172 174 175 175 176 177 178 181 184 188 192 194 197 201 203 203 203 204 203 202 203 203 205 209 214 217 210 219 235 233 235 228 216 205 197 189
158 164 177 173 175 176 176 178 180 182 183 185 187 190 194 199 204 208 210 212 216 220 221 220 220 221 221 221 222 224 226 231 221 218 230 238 238 240 238 227 217 209 201
161 164 175 178 179 180 181 183 185 188 191 194 197 201 206 211 216 221 224 226 227 229 231 232 232 233 233 234 235 237 239 243 242 230 229 237 244 247 243 235 225 216 210
157 162 174 177 182 185 186 188 191 195 198 202 206 211 216 221 226 230 233 235 236 237 239 240 240 241 241 241 242 245 248 250 249 238 244 241 247 251 250 243 232 221 217
156 169 173 173 174 180 188 196 197 201 205 209 214 219 224 229 233 236 237 240 244 245 245 246 246 247 247 247 247 250 253 256 254 248 248 250 253 254 253 250 241 227 221
176 182 178 177 175 173 182 201 202 207 211 215 220 226 229 231 237 245 246 244 248 250 250 250 251 251 252 252 253 254 256 248 249 252 251 254 256 256 254 251 246 234 226
188 190 189 186 180 175 192 197 199 206 210 213 212 225 227 221 228 240 248 252 253 253 253 252 251 252 253 249 254 259 254 251 250 252 252 255 256 257 254 251 246 238 231
190 191 194 195 187 186 195 191 197 203 206 213 215 217 221 227 234 242 243 254 258 259 257 256 255 247 241 240 242 244 249 253 253 253 254 256 256 257 256 253 249 242 236
183 195 193 193 193 198 198 202 201 213 219 224 224 219 218 227 234 238 241 241 240 244 246 248 246 245 243 242 243 246 248 247 248 248 252 258 258 257 259 258 254 247 240
191 195 192 187 195 199 201 210 212 218 225 231 230 227 225 231 237 237 240 240 239 235 235 240 241 243 244 245 244 245 248 247 247 245 251 258 261 261 263 263 258 252 245
197 197 189 190 195 195 203 211 223 220 226 233 241 240 231 231 237 238 239 239 239 236 233 233 236 240 242 243 245 243 244 246 247 245 244 254 258 260 263 264 260 253 248
193 190 190 194 192 198 208 215 226 231 230 228 234 240 237 234 235 237 238 239 239 235 234 234 238 239 244 244 247 247 244 243 244 245 245 246 252 257 260 263 259 250 245
174 177 188 196 190 199 208 215 223 231 232 234 234 240 239 237 237 237 240 242 239 232 228 228 229 232 238 242 248 250 244 238 240 241 243 244 243 250 253 255 257 252 244
154 156 164 174 183 195 206 212 225 233 239 240 240 244 248 245 241 237 242 245 240 234 231 230 226 223 236 241 245 248 245 243 242 244 241 241 238 238 242 248 249 250 246
110 119 135 149 165 174 186 209 232 244 247 247 246 249 255 255 253 244 245 247 241 236 232 226 227 219 224 233 253 260 251 244 238 237 242 244 240 239 239 242 242 244 242
120 136 153 152 160 150 154 190 222 246 253 257 259 263 268 273 273 261 259 255 243 239 236 228 225 226 222 202 228 257 255 244 241 239 238 241 243 242 238 236 235 235 237
154 160 169 172 175 176 178 190 211 242 271 276 293 299 299 303 297 288 271 266 258 254 253 242 228 227 222 197 201 221 260 263 244 239 232 234 238 234 237 237 233 231 230
191 184 180 187 186 187 180 147 21 352 323 316 313 312 317 318 309 296 288 282 273 262 260 251 237 230 230 216 204 203 214 233 252 252 236 235 232 229 233 235 236 233 228
218 202 191 195 196 197 175 168 181 210 253 259 278 291 304 308 310 310 308 303 291 279 270 264 251 242 237 235 217 218 223 203 206 248 248 238 236 236 234 234 235 231 225
226 212 207 205 211 206 195 195 200 229 243 269 283 291 297 303 306 312 312 309 302 291 280 271 264 251 242 239 227 214 223 225 221 226 245 234 234 240 235 232 232 226 217
239 226 215 214 229 221 214 212 211 230 249 274 288 294 299 301 302 311 314 308 301 294 289 282 271 258 250 247 240 224 211 208 208 213 226 223 222 229 231 228 230 219 207